Year,Month,Day,Hour,Minute,Value (Times are PST for temperature in C)
2013,03,31,00,00,6.40
2013,03,31,00,01,6.40
2013,03,31,00,02,6.30
2013,03,31,00,03,6.30
2013,03,31,00,04,6.30
2013,03,31,00,05,6.30
2013,03,31,00,06,6.30
2013,03,31,00,07,6.30
2013,03,31,00,08,6.20
2013,03,31,00,09,6.20
2013,03,31,00,10,6.20
2013,03,31,00,11,6.20
2013,03,31,00,12,6.20
2013,03,31,00,13,6.20
2013,03,31,00,14,6.20
2013,03,31,00,15,6.20
2013,03,31,00,16,6.20
2013,03,31,00,17,6.20
2013,03,31,00,18,6.20
2013,03,31,00,19,6.20
2013,03,31,00,20,6.20
2013,03,31,00,21,6.20
2013,03,31,00,22,6.20
2013,03,31,00,23,6.10
2013,03,31,00,24,6.10
2013,03,31,00,25,6.10
2013,03,31,00,26,6.10
2013,03,31,00,27,6.10
2013,03,31,00,28,6.10
2013,03,31,00,29,6.10
2013,03,31,00,30,6.10
2013,03,31,00,31,6.10
2013,03,31,00,32,6.10
2013,03,31,00,33,6.10
2013,03,31,00,34,6.00
2013,03,31,00,35,6.00
2013,03,31,00,36,6.00
2013,03,31,00,37,6.00
2013,03,31,00,38,5.90
2013,03,31,00,39,5.90
2013,03,31,00,40,5.90
2013,03,31,00,41,5.90
2013,03,31,00,42,5.90
2013,03,31,00,43,5.80
2013,03,31,00,44,5.80
2013,03,31,00,45,5.80
2013,03,31,00,46,5.80
2013,03,31,00,47,5.80
2013,03,31,00,48,5.80
2013,03,31,00,49,5.80
2013,03,31,00,50,5.80
2013,03,31,00,51,5.80
2013,03,31,00,52,5.80
2013,03,31,00,53,5.80
2013,03,31,00,54,5.70
2013,03,31,00,55,5.70
2013,03,31,00,56,5.70
2013,03,31,00,57,5.70
2013,03,31,00,58,5.70
2013,03,31,00,59,5.70
2013,03,31,01,00,5.70
2013,03,31,01,01,5.70
2013,03,31,01,02,5.70
2013,03,31,01,03,5.70
2013,03,31,01,04,5.60
2013,03,31,01,05,5.60
2013,03,31,01,06,5.60
2013,03,31,01,07,5.60
2013,03,31,01,08,5.60
2013,03,31,01,09,5.60
2013,03,31,01,10,5.50
2013,03,31,01,11,5.50
2013,03,31,01,12,5.50
2013,03,31,01,13,5.50
2013,03,31,01,14,5.40
2013,03,31,01,15,5.40
2013,03,31,01,16,5.40
2013,03,31,01,17,5.40
2013,03,31,01,18,5.40
2013,03,31,01,19,5.40
2013,03,31,01,20,5.40
2013,03,31,01,21,5.40
2013,03,31,01,22,5.30
2013,03,31,01,23,5.30
2013,03,31,01,24,5.30
2013,03,31,01,25,5.30
2013,03,31,01,26,5.30
2013,03,31,01,27,5.30
2013,03,31,01,28,5.30
2013,03,31,01,29,5.30
2013,03,31,01,30,5.20
2013,03,31,01,31,5.20
2013,03,31,01,32,5.20
2013,03,31,01,33,5.20
2013,03,31,01,34,5.20
2013,03,31,01,35,5.20
2013,03,31,01,36,5.20
2013,03,31,01,37,5.10
2013,03,31,01,38,5.10
2013,03,31,01,39,5.10
2013,03,31,01,40,5.10
2013,03,31,01,41,5.10
2013,03,31,01,42,5.10
2013,03,31,01,43,5.10
2013,03,31,01,44,5.10
2013,03,31,01,45,5.10
2013,03,31,01,46,5.10
2013,03,31,01,47,5.10
2013,03,31,01,48,5.10
2013,03,31,01,49,5.00
2013,03,31,01,50,5.00
2013,03,31,01,51,5.00
2013,03,31,01,52,5.00
2013,03,31,01,53,5.00
2013,03,31,01,54,4.90
2013,03,31,01,55,4.90
2013,03,31,01,56,4.90
2013,03,31,01,57,4.90
2013,03,31,01,58,4.90
2013,03,31,01,59,4.90
2013,03,31,02,00,4.90
2013,03,31,02,01,4.90
2013,03,31,02,02,4.90
2013,03,31,02,03,4.80
2013,03,31,02,04,4.80
2013,03,31,02,05,4.80
2013,03,31,02,06,4.80
2013,03,31,02,07,4.80
2013,03,31,02,08,4.80
2013,03,31,02,09,4.80
2013,03,31,02,10,4.80
2013,03,31,02,11,4.80
2013,03,31,02,12,4.80
2013,03,31,02,13,4.80
2013,03,31,02,14,4.80
2013,03,31,02,15,4.80
2013,03,31,02,16,4.80
2013,03,31,02,17,4.70
2013,03,31,02,18,4.70
2013,03,31,02,19,4.70
2013,03,31,02,20,4.70
2013,03,31,02,21,4.70
2013,03,31,02,22,4.70
2013,03,31,02,23,4.70
2013,03,31,02,24,4.70
2013,03,31,02,25,4.70
2013,03,31,02,26,4.70
2013,03,31,02,27,4.70
2013,03,31,02,28,4.60
2013,03,31,02,29,4.60
2013,03,31,02,30,4.60
2013,03,31,02,31,4.60
2013,03,31,02,32,4.60
2013,03,31,02,33,4.60
2013,03,31,02,34,4.60
2013,03,31,02,35,4.60
2013,03,31,02,36,4.60
2013,03,31,02,37,4.50
2013,03,31,02,38,4.50
2013,03,31,02,39,4.50
2013,03,31,02,40,4.50
2013,03,31,02,41,4.50
2013,03,31,02,42,4.50
2013,03,31,02,43,4.60
2013,03,31,02,44,4.60
2013,03,31,02,45,4.60
2013,03,31,02,46,4.60
2013,03,31,02,47,4.60
2013,03,31,02,48,4.60
2013,03,31,02,49,4.60
2013,03,31,02,50,4.60
2013,03,31,02,51,4.60
2013,03,31,02,52,4.60
2013,03,31,02,53,4.50
2013,03,31,02,54,4.50
2013,03,31,02,55,4.50
2013,03,31,02,56,4.50
2013,03,31,02,57,4.50
2013,03,31,02,58,4.50
2013,03,31,02,59,4.40
2013,03,31,03,00,4.40
2013,03,31,03,01,4.40
2013,03,31,03,02,4.40
2013,03,31,03,03,4.40
2013,03,31,03,04,4.40
2013,03,31,03,05,4.40
2013,03,31,03,06,4.40
2013,03,31,03,07,4.30
2013,03,31,03,08,4.30
2013,03,31,03,09,4.30
2013,03,31,03,10,4.30
2013,03,31,03,11,4.30
2013,03,31,03,12,4.30
2013,03,31,03,13,4.30
2013,03,31,03,14,4.30
2013,03,31,03,15,4.30
2013,03,31,03,16,4.20
2013,03,31,03,17,4.20
2013,03,31,03,18,4.20
2013,03,31,03,19,4.20
2013,03,31,03,20,4.20
2013,03,31,03,21,4.20
2013,03,31,03,22,4.20
2013,03,31,03,23,4.20
2013,03,31,03,24,4.20
2013,03,31,03,25,4.20
2013,03,31,03,26,4.10
2013,03,31,03,27,4.10
2013,03,31,03,28,4.10
2013,03,31,03,29,4.10
2013,03,31,03,30,4.10
2013,03,31,03,31,4.10
2013,03,31,03,32,4.10
2013,03,31,03,33,4.10
2013,03,31,03,34,4.10
2013,03,31,03,35,4.10
2013,03,31,03,36,4.00
2013,03,31,03,37,4.00
2013,03,31,03,38,4.00
2013,03,31,03,39,4.00
2013,03,31,03,40,4.00
2013,03,31,03,41,4.00
2013,03,31,03,42,4.00
2013,03,31,03,43,4.00
2013,03,31,03,44,3.90
2013,03,31,03,45,3.90
2013,03,31,03,46,3.90
2013,03,31,03,47,3.90
2013,03,31,03,48,3.90
2013,03,31,03,49,3.90
2013,03,31,03,50,3.90
2013,03,31,03,51,3.90
2013,03,31,03,52,3.90
2013,03,31,03,53,3.90
2013,03,31,03,54,3.80
2013,03,31,03,55,3.80
2013,03,31,03,56,3.80
2013,03,31,03,57,3.80
2013,03,31,03,58,3.80
2013,03,31,03,59,3.80
2013,03,31,04,00,3.80
2013,03,31,04,01,3.80
2013,03,31,04,02,3.80
2013,03,31,04,03,3.80
2013,03,31,04,04,3.80
2013,03,31,04,05,3.80
2013,03,31,04,06,3.80
2013,03,31,04,07,3.80
2013,03,31,04,08,3.80
2013,03,31,04,09,3.80
2013,03,31,04,10,3.80
2013,03,31,04,11,3.80
2013,03,31,04,12,3.80
2013,03,31,04,13,3.80
2013,03,31,04,14,3.80
2013,03,31,04,15,3.80
2013,03,31,04,16,3.80
2013,03,31,04,17,3.80
2013,03,31,04,18,3.80
2013,03,31,04,19,3.80
2013,03,31,04,20,3.80
2013,03,31,04,21,3.80
2013,03,31,04,22,3.70
2013,03,31,04,23,3.70
2013,03,31,04,24,3.70
2013,03,31,04,25,3.70
2013,03,31,04,26,3.70
2013,03,31,04,27,3.70
2013,03,31,04,28,3.70
2013,03,31,04,29,3.70
2013,03,31,04,30,3.70
2013,03,31,04,31,3.70
2013,03,31,04,32,3.70
2013,03,31,04,33,3.70
2013,03,31,04,34,3.70
2013,03,31,04,35,3.70
2013,03,31,04,36,3.70
2013,03,31,04,37,3.70
2013,03,31,04,38,3.70
2013,03,31,04,39,3.70
2013,03,31,04,40,3.70
2013,03,31,04,41,3.70
2013,03,31,04,42,3.70
2013,03,31,04,43,3.70
2013,03,31,04,44,3.70
2013,03,31,04,45,3.70
2013,03,31,04,46,3.70
2013,03,31,04,47,3.70
2013,03,31,04,48,3.70
2013,03,31,04,49,3.70
2013,03,31,04,50,3.70
2013,03,31,04,51,3.70
2013,03,31,04,52,3.70
2013,03,31,04,53,3.70
2013,03,31,04,54,3.70
2013,03,31,04,55,3.80
2013,03,31,04,56,3.80
2013,03,31,04,57,3.80
2013,03,31,04,58,3.80
2013,03,31,04,59,3.80
2013,03,31,05,00,3.80
2013,03,31,05,01,3.80
2013,03,31,05,02,3.80
2013,03,31,05,03,3.80
2013,03,31,05,04,3.80
2013,03,31,05,05,3.80
2013,03,31,05,06,3.80
2013,03,31,05,07,3.80
2013,03,31,05,08,3.80
2013,03,31,05,09,3.80
2013,03,31,05,10,3.80
2013,03,31,05,11,3.80
2013,03,31,05,12,3.80
2013,03,31,05,13,3.80
2013,03,31,05,14,3.80
2013,03,31,05,15,3.80
2013,03,31,05,16,3.80
2013,03,31,05,17,3.80
2013,03,31,05,18,3.80
2013,03,31,05,19,3.80
2013,03,31,05,20,3.80
2013,03,31,05,21,3.80
2013,03,31,05,22,3.80
2013,03,31,05,23,3.80
2013,03,31,05,24,3.80
2013,03,31,05,25,3.80
2013,03,31,05,26,3.80
2013,03,31,05,27,3.80
2013,03,31,05,28,3.70
2013,03,31,05,29,3.70
2013,03,31,05,30,3.70
2013,03,31,05,31,3.70
2013,03,31,05,32,3.70
2013,03,31,05,33,3.70
2013,03,31,05,34,3.70
2013,03,31,05,35,3.70
2013,03,31,05,36,3.70
2013,03,31,05,37,3.70
2013,03,31,05,38,3.70
2013,03,31,05,39,3.70
2013,03,31,05,40,3.70
2013,03,31,05,41,3.70
2013,03,31,05,42,3.70
2013,03,31,05,43,3.70
2013,03,31,05,44,3.70
2013,03,31,05,45,3.70
2013,03,31,05,46,3.70
2013,03,31,05,47,3.70
2013,03,31,05,48,3.60
2013,03,31,05,49,3.60
2013,03,31,05,50,3.60
2013,03,31,05,51,3.60
2013,03,31,05,52,3.60
2013,03,31,05,53,3.60
2013,03,31,05,54,3.60
2013,03,31,05,55,3.60
2013,03,31,05,56,3.50
2013,03,31,05,57,3.50
2013,03,31,05,58,3.50
2013,03,31,05,59,3.50
2013,03,31,06,00,3.50
2013,03,31,06,01,3.40
2013,03,31,06,02,3.40
2013,03,31,06,03,3.40
2013,03,31,06,04,3.40
2013,03,31,06,05,3.40
2013,03,31,06,06,3.40
2013,03,31,06,07,3.40
2013,03,31,06,08,3.40
2013,03,31,06,09,3.40
2013,03,31,06,10,3.40
2013,03,31,06,11,3.40
2013,03,31,06,12,3.40
2013,03,31,06,13,3.40
2013,03,31,06,14,3.40
2013,03,31,06,15,3.30
2013,03,31,06,16,3.40
2013,03,31,06,17,3.40
2013,03,31,06,18,3.40
2013,03,31,06,19,3.40
2013,03,31,06,20,3.40
2013,03,31,06,21,3.40
2013,03,31,06,22,3.40
2013,03,31,06,23,3.40
2013,03,31,06,24,3.40
2013,03,31,06,25,3.50
2013,03,31,06,26,3.50
2013,03,31,06,27,3.60
2013,03,31,06,28,3.60
2013,03,31,06,29,3.60
2013,03,31,06,30,3.60
2013,03,31,06,31,3.60
2013,03,31,06,32,3.70
2013,03,31,06,33,3.70
2013,03,31,06,34,3.70
2013,03,31,06,35,3.70
2013,03,31,06,36,3.70
2013,03,31,06,37,3.70
2013,03,31,06,38,3.70
2013,03,31,06,39,3.70
2013,03,31,06,40,3.70
2013,03,31,06,41,3.60
2013,03,31,06,42,3.60
2013,03,31,06,43,3.60
2013,03,31,06,44,3.60
2013,03,31,06,45,3.60
2013,03,31,06,46,3.60
2013,03,31,06,47,3.60
2013,03,31,06,48,3.60
2013,03,31,06,49,3.50
2013,03,31,06,50,3.50
2013,03,31,06,51,3.50
2013,03,31,06,52,3.50
2013,03,31,06,53,3.40
2013,03,31,06,54,3.40
2013,03,31,06,55,3.40
2013,03,31,06,56,3.40
2013,03,31,06,57,3.40
2013,03,31,06,58,3.40
2013,03,31,06,59,3.40
2013,03,31,07,00,3.40
2013,03,31,07,01,3.40
2013,03,31,07,02,3.40
2013,03,31,07,03,3.40
2013,03,31,07,04,3.40
2013,03,31,07,05,3.30
2013,03,31,07,06,3.30
2013,03,31,07,07,3.30
2013,03,31,07,08,3.30
2013,03,31,07,09,3.30
2013,03,31,07,10,3.30
2013,03,31,07,11,3.30
2013,03,31,07,12,3.30
2013,03,31,07,13,3.30
2013,03,31,07,14,3.30
2013,03,31,07,15,3.30
2013,03,31,07,16,3.30
2013,03,31,07,17,3.30
2013,03,31,07,18,3.30
2013,03,31,07,19,3.40
2013,03,31,07,20,3.40
2013,03,31,07,21,3.40
2013,03,31,07,22,3.40
2013,03,31,07,23,3.40
2013,03,31,07,24,3.40
2013,03,31,07,25,3.40
2013,03,31,07,26,3.40
2013,03,31,07,27,3.40
2013,03,31,07,28,3.40
2013,03,31,07,29,3.40
2013,03,31,07,30,3.50
2013,03,31,07,31,3.50
2013,03,31,07,32,3.60
2013,03,31,07,33,3.60
2013,03,31,07,34,3.60
2013,03,31,07,35,3.60
2013,03,31,07,36,3.60
2013,03,31,07,37,3.60
2013,03,31,07,38,3.70
2013,03,31,07,39,3.70
2013,03,31,07,40,3.70
2013,03,31,07,41,3.70
2013,03,31,07,42,3.70
2013,03,31,07,43,3.80
2013,03,31,07,44,3.80
2013,03,31,07,45,3.80
2013,03,31,07,46,3.80
2013,03,31,07,47,3.90
2013,03,31,07,48,3.90
2013,03,31,07,49,3.90
2013,03,31,07,50,4.00
2013,03,31,07,51,4.10
2013,03,31,07,52,4.10
2013,03,31,07,53,4.20
2013,03,31,07,54,4.20
2013,03,31,07,55,4.30
2013,03,31,07,56,4.30
2013,03,31,07,57,4.40
2013,03,31,07,58,4.40
2013,03,31,07,59,4.50
2013,03,31,08,00,4.50
2013,03,31,08,01,4.60
2013,03,31,08,02,4.60
2013,03,31,08,03,4.60
2013,03,31,08,04,4.70
2013,03,31,08,05,4.70
2013,03,31,08,06,4.70
2013,03,31,08,07,4.80
2013,03,31,08,08,4.80
2013,03,31,08,09,4.90
2013,03,31,08,10,5.00
2013,03,31,08,11,5.00
2013,03,31,08,12,5.10
2013,03,31,08,13,5.20
2013,03,31,08,14,5.20
2013,03,31,08,15,5.30
2013,03,31,08,16,5.40
2013,03,31,08,17,5.50
2013,03,31,08,18,5.50
2013,03,31,08,19,5.60
2013,03,31,08,20,5.70
2013,03,31,08,21,5.70
2013,03,31,08,22,5.80
2013,03,31,08,23,5.80
2013,03,31,08,24,5.80
2013,03,31,08,25,5.90
2013,03,31,08,26,5.90
2013,03,31,08,27,5.90
2013,03,31,08,28,6.00
2013,03,31,08,29,6.00
2013,03,31,08,30,6.00
2013,03,31,08,31,6.10
2013,03,31,08,32,6.10
2013,03,31,08,33,6.10
2013,03,31,08,34,6.10
2013,03,31,08,35,6.20
2013,03,31,08,36,6.20
2013,03,31,08,37,6.30
2013,03,31,08,38,6.30
2013,03,31,08,39,6.40
2013,03,31,08,40,6.50
2013,03,31,08,41,6.50
2013,03,31,08,42,6.60
2013,03,31,08,43,6.80
2013,03,31,08,44,6.90
2013,03,31,08,45,7.00
2013,03,31,08,46,7.20
2013,03,31,08,47,7.30
2013,03,31,08,48,7.40
2013,03,31,08,49,7.50
2013,03,31,08,50,7.60
2013,03,31,08,51,7.70
2013,03,31,08,52,7.80
2013,03,31,08,53,7.90
2013,03,31,08,54,7.90
2013,03,31,08,55,8.00
2013,03,31,08,56,8.10
2013,03,31,08,57,8.10
2013,03,31,08,58,8.20
2013,03,31,08,59,8.30
2013,03,31,09,00,8.50
2013,03,31,09,01,8.70
2013,03,31,09,02,8.80
2013,03,31,09,03,9.00
2013,03,31,09,04,9.20
2013,03,31,09,05,9.40
2013,03,31,09,06,9.60
2013,03,31,09,07,9.70
2013,03,31,09,08,9.90
2013,03,31,09,09,10.10
2013,03,31,09,10,10.30
2013,03,31,09,11,10.40
2013,03,31,09,12,10.60
2013,03,31,09,13,10.80
2013,03,31,09,14,10.90
2013,03,31,09,15,11.10
2013,03,31,09,16,11.20
2013,03,31,09,17,11.30
2013,03,31,09,18,11.40
2013,03,31,09,19,11.50
2013,03,31,09,20,11.70
2013,03,31,09,21,11.80
2013,03,31,09,22,11.90
2013,03,31,09,23,11.90
2013,03,31,09,24,12.00
2013,03,31,09,25,12.10
2013,03,31,09,26,12.20
2013,03,31,09,27,12.20
2013,03,31,09,28,12.30
2013,03,31,09,29,12.30
2013,03,31,09,30,12.40
2013,03,31,09,31,12.50
2013,03,31,09,32,12.60
2013,03,31,09,33,12.60
2013,03,31,09,34,12.70
2013,03,31,09,35,12.80
2013,03,31,09,36,12.80
2013,03,31,09,37,12.80
2013,03,31,09,38,12.90
2013,03,31,09,39,13.00
2013,03,31,09,40,13.20
2013,03,31,09,41,13.30
2013,03,31,09,42,13.50
2013,03,31,09,43,13.60
2013,03,31,09,44,13.70
2013,03,31,09,45,13.80
2013,03,31,09,46,13.90
2013,03,31,09,47,14.00
2013,03,31,09,48,14.20
2013,03,31,09,49,14.20
2013,03,31,09,50,14.30
2013,03,31,09,51,14.30
2013,03,31,09,52,14.40
2013,03,31,09,53,14.40
2013,03,31,09,54,14.40
2013,03,31,09,55,14.40
2013,03,31,09,56,14.40
2013,03,31,09,57,14.40
2013,03,31,09,58,14.50
2013,03,31,09,59,14.50
2013,03,31,10,00,14.60
2013,03,31,10,01,14.60
2013,03,31,10,02,14.60
2013,03,31,10,03,14.60
2013,03,31,10,04,14.70
2013,03,31,10,05,14.70
2013,03,31,10,06,14.80
2013,03,31,10,07,14.90
2013,03,31,10,08,14.90
2013,03,31,10,09,14.90
2013,03,31,10,10,15.00
2013,03,31,10,11,15.00
2013,03,31,10,12,15.00
2013,03,31,10,13,15.00
2013,03,31,10,14,15.10
2013,03,31,10,15,15.10
2013,03,31,10,16,15.10
2013,03,31,10,17,15.10
2013,03,31,10,18,15.20
2013,03,31,10,19,15.20
2013,03,31,10,20,15.30
2013,03,31,10,21,15.30
2013,03,31,10,22,15.40
2013,03,31,10,23,15.40
2013,03,31,10,24,15.40
2013,03,31,10,25,15.40
2013,03,31,10,26,15.40
2013,03,31,10,27,15.40
2013,03,31,10,28,15.50
2013,03,31,10,29,15.50
2013,03,31,10,30,15.60
2013,03,31,10,31,15.60
2013,03,31,10,32,15.60
2013,03,31,10,33,15.60
2013,03,31,10,34,15.60
2013,03,31,10,35,15.70
2013,03,31,10,36,15.70
2013,03,31,10,37,15.70
2013,03,31,10,38,15.70
2013,03,31,10,39,15.60
2013,03,31,10,40,15.60
2013,03,31,10,41,15.60
2013,03,31,10,42,15.60
2013,03,31,10,43,15.60
2013,03,31,10,44,15.70
2013,03,31,10,45,15.70
2013,03,31,10,46,15.70
2013,03,31,10,47,15.70
2013,03,31,10,48,15.70
2013,03,31,10,49,15.70
2013,03,31,10,50,15.70
2013,03,31,10,51,15.60
2013,03,31,10,52,15.60
2013,03,31,10,53,15.60
2013,03,31,10,54,15.60
2013,03,31,10,55,15.50
2013,03,31,10,56,15.50
2013,03,31,10,57,15.60
2013,03,31,10,58,15.60
2013,03,31,10,59,15.60
2013,03,31,11,00,15.70
2013,03,31,11,01,15.80
2013,03,31,11,02,15.80
2013,03,31,11,03,15.90
2013,03,31,11,04,15.90
2013,03,31,11,05,16.00
2013,03,31,11,06,16.00
2013,03,31,11,07,16.00
2013,03,31,11,08,16.00
2013,03,31,11,09,16.00
2013,03,31,11,10,16.10
2013,03,31,11,11,16.10
2013,03,31,11,12,16.10
2013,03,31,11,13,16.10
2013,03,31,11,14,16.20
2013,03,31,11,15,16.20
2013,03,31,11,16,16.30
2013,03,31,11,17,16.30
2013,03,31,11,18,16.40
2013,03,31,11,19,16.50
2013,03,31,11,20,16.60
2013,03,31,11,21,16.60
2013,03,31,11,22,16.70
2013,03,31,11,23,16.70
2013,03,31,11,24,16.70
2013,03,31,11,25,16.70
2013,03,31,11,26,16.70
2013,03,31,11,27,16.70
2013,03,31,11,28,16.70
2013,03,31,11,29,16.80
2013,03,31,11,30,16.80
2013,03,31,11,31,16.80
2013,03,31,11,32,16.80
2013,03,31,11,33,16.80
2013,03,31,11,34,16.80
2013,03,31,11,35,16.90
2013,03,31,11,36,16.90
2013,03,31,11,37,16.90
2013,03,31,11,38,17.00
2013,03,31,11,39,17.00
2013,03,31,11,40,17.00
2013,03,31,11,41,17.00
2013,03,31,11,42,17.10
2013,03,31,11,43,17.10
2013,03,31,11,44,17.20
2013,03,31,11,45,17.20
2013,03,31,11,46,17.20
2013,03,31,11,47,17.30
2013,03,31,11,48,17.30
2013,03,31,11,49,17.30
2013,03,31,11,50,17.30
2013,03,31,11,51,17.30
2013,03,31,11,52,17.30
2013,03,31,11,53,17.40
2013,03,31,11,54,17.40
2013,03,31,11,55,17.40
2013,03,31,11,56,17.50
2013,03,31,11,57,17.60
2013,03,31,11,58,17.60
2013,03,31,11,59,17.70
2013,03,31,12,00,17.70
2013,03,31,12,01,17.80
2013,03,31,12,02,17.80
2013,03,31,12,03,17.80
2013,03,31,12,04,17.90
2013,03,31,12,05,17.90
2013,03,31,12,06,17.90
2013,03,31,12,07,17.90
2013,03,31,12,08,17.90
2013,03,31,12,09,18.00
2013,03,31,12,10,18.00
2013,03,31,12,11,18.10
2013,03,31,12,12,18.10
2013,03,31,12,13,18.20
2013,03,31,12,14,18.20
2013,03,31,12,15,18.20
2013,03,31,12,16,18.20
2013,03,31,12,17,18.20
2013,03,31,12,18,18.20
2013,03,31,12,19,18.20
2013,03,31,12,20,18.20
2013,03,31,12,21,18.30
2013,03,31,12,22,18.30
2013,03,31,12,23,18.30
2013,03,31,12,24,18.30
2013,03,31,12,25,18.30
2013,03,31,12,26,18.20
2013,03,31,12,27,18.10
2013,03,31,12,28,18.10
2013,03,31,12,29,18.10
2013,03,31,12,30,18.10
2013,03,31,12,31,18.10
2013,03,31,12,32,18.10
2013,03,31,12,33,18.10
2013,03,31,12,34,18.10
2013,03,31,12,35,18.10
2013,03,31,12,36,18.10
2013,03,31,12,37,18.20
2013,03,31,12,38,18.20
2013,03,31,12,39,18.20
2013,03,31,12,40,18.20
2013,03,31,12,41,18.20
2013,03,31,12,42,18.10
2013,03,31,12,43,18.10
2013,03,31,12,44,18.10
2013,03,31,12,45,18.20
2013,03,31,12,46,18.20
2013,03,31,12,47,18.10
2013,03,31,12,48,18.10
2013,03,31,12,49,18.20
2013,03,31,12,50,18.20
2013,03,31,12,51,18.20
2013,03,31,12,52,18.20
2013,03,31,12,53,18.20
2013,03,31,12,54,18.20
2013,03,31,12,55,18.20
2013,03,31,12,56,18.30
2013,03,31,12,57,18.30
2013,03,31,12,58,18.30
2013,03,31,12,59,18.40
2013,03,31,13,00,18.40
2013,03,31,13,01,18.40
2013,03,31,13,02,18.40
2013,03,31,13,03,18.50
2013,03,31,13,04,18.50
2013,03,31,13,05,18.50
2013,03,31,13,06,18.50
2013,03,31,13,07,18.50
2013,03,31,13,08,18.50
2013,03,31,13,09,18.40
2013,03,31,13,10,18.40
2013,03,31,13,11,18.40
2013,03,31,13,12,18.40
2013,03,31,13,13,18.40
2013,03,31,13,14,18.50
2013,03,31,13,15,18.50
2013,03,31,13,16,18.50
2013,03,31,13,17,18.60
2013,03,31,13,18,18.60
2013,03,31,13,19,18.60
2013,03,31,13,20,18.60
2013,03,31,13,21,18.70
2013,03,31,13,22,18.70
2013,03,31,13,23,18.70
2013,03,31,13,24,18.70
2013,03,31,13,25,18.70
2013,03,31,13,26,18.70
2013,03,31,13,27,18.80
2013,03,31,13,28,18.80
2013,03,31,13,29,18.80
2013,03,31,13,30,18.80
2013,03,31,13,31,18.70
2013,03,31,13,32,18.80
2013,03,31,13,33,18.80
2013,03,31,13,34,18.80
2013,03,31,13,35,18.80
2013,03,31,13,36,18.80
2013,03,31,13,37,18.80
2013,03,31,13,38,18.80
2013,03,31,13,39,18.90
2013,03,31,13,40,18.90
2013,03,31,13,41,18.90
2013,03,31,13,42,18.90
2013,03,31,13,43,18.90
2013,03,31,13,44,19.00
2013,03,31,13,45,19.00
2013,03,31,13,46,19.00
2013,03,31,13,47,19.00
2013,03,31,13,48,19.00
2013,03,31,13,49,19.00
2013,03,31,13,50,19.10
2013,03,31,13,51,19.10
2013,03,31,13,52,19.20
2013,03,31,13,53,19.20
2013,03,31,13,54,19.20
2013,03,31,13,55,19.30
2013,03,31,13,56,19.30
2013,03,31,13,57,19.30
2013,03,31,13,58,19.40
2013,03,31,13,59,19.40
2013,03,31,14,00,19.40
2013,03,31,14,01,19.50
2013,03,31,14,02,19.50
2013,03,31,14,03,19.50
2013,03,31,14,04,19.40
2013,03,31,14,05,19.50
2013,03,31,14,06,19.50
2013,03,31,14,07,19.50
2013,03,31,14,08,19.40
2013,03,31,14,09,19.40
2013,03,31,14,10,19.40
2013,03,31,14,11,19.40
2013,03,31,14,12,19.40
2013,03,31,14,13,19.40
2013,03,31,14,14,19.40
2013,03,31,14,15,19.40
2013,03,31,14,16,19.40
2013,03,31,14,17,19.50
2013,03,31,14,18,19.50
2013,03,31,14,19,19.60
2013,03,31,14,20,19.60
2013,03,31,14,21,19.60
2013,03,31,14,22,19.60
2013,03,31,14,23,19.60
2013,03,31,14,24,19.60
2013,03,31,14,25,19.70
2013,03,31,14,26,19.70
2013,03,31,14,27,19.70
2013,03,31,14,28,19.70
2013,03,31,14,29,19.80
2013,03,31,14,30,19.80
2013,03,31,14,31,19.90
2013,03,31,14,32,19.90
2013,03,31,14,33,19.90
2013,03,31,14,34,19.90
2013,03,31,14,35,19.90
2013,03,31,14,36,19.90
2013,03,31,14,37,19.90
2013,03,31,14,38,19.90
2013,03,31,14,39,19.90
2013,03,31,14,40,19.90
2013,03,31,14,41,19.90
2013,03,31,14,42,20.00
2013,03,31,14,43,20.00
2013,03,31,14,44,20.00
2013,03,31,14,45,20.10
2013,03,31,14,46,20.10
2013,03,31,14,47,20.20
2013,03,31,14,48,20.20
2013,03,31,14,49,20.30
2013,03,31,14,50,20.30
2013,03,31,14,51,20.30
2013,03,31,14,52,20.30
2013,03,31,14,53,20.30
2013,03,31,14,54,20.30
2013,03,31,14,55,20.40
2013,03,31,14,56,20.40
2013,03,31,14,57,20.40
2013,03,31,14,58,20.40
2013,03,31,14,59,20.50
2013,03,31,15,00,20.50
2013,03,31,15,01,20.50
2013,03,31,15,02,20.50
2013,03,31,15,03,20.50
2013,03,31,15,04,20.40
2013,03,31,15,05,20.40
2013,03,31,15,06,20.40
2013,03,31,15,07,20.40
2013,03,31,15,08,20.50
2013,03,31,15,09,20.50
2013,03,31,15,10,20.50
2013,03,31,15,11,20.60
2013,03,31,15,12,20.60
2013,03,31,15,13,20.50
2013,03,31,15,14,20.50
2013,03,31,15,15,20.50
2013,03,31,15,16,20.50
2013,03,31,15,17,20.60
2013,03,31,15,18,20.60
2013,03,31,15,19,20.60
2013,03,31,15,20,20.60
2013,03,31,15,21,20.60
2013,03,31,15,22,20.60
2013,03,31,15,23,20.70
2013,03,31,15,24,20.70
2013,03,31,15,25,20.70
2013,03,31,15,26,20.60
2013,03,31,15,27,20.60
2013,03,31,15,28,20.60
2013,03,31,15,29,20.70
2013,03,31,15,30,20.70
2013,03,31,15,31,20.70
2013,03,31,15,32,20.70
2013,03,31,15,33,20.80
2013,03,31,15,34,20.80
2013,03,31,15,35,20.80
2013,03,31,15,36,20.80
2013,03,31,15,37,20.90
2013,03,31,15,38,20.90
2013,03,31,15,39,20.90
2013,03,31,15,40,20.90
2013,03,31,15,41,20.90
2013,03,31,15,42,20.90
2013,03,31,15,43,20.90
2013,03,31,15,44,20.80
2013,03,31,15,45,20.80
2013,03,31,15,46,20.70
2013,03,31,15,47,20.70
2013,03,31,15,48,20.70
2013,03,31,15,49,20.70
2013,03,31,15,50,20.80
2013,03,31,15,51,20.80
2013,03,31,15,52,20.80
2013,03,31,15,53,20.80
2013,03,31,15,54,20.80
2013,03,31,15,55,20.80
2013,03,31,15,56,20.80
2013,03,31,15,57,20.90
2013,03,31,15,58,20.90
2013,03,31,15,59,20.90
2013,03,31,16,00,20.90
2013,03,31,16,01,20.90
2013,03,31,16,02,20.90
2013,03,31,16,03,20.90
2013,03,31,16,04,20.90
2013,03,31,16,05,20.90
2013,03,31,16,06,20.90
2013,03,31,16,07,21.00
2013,03,31,16,08,21.00
2013,03,31,16,09,21.10
2013,03,31,16,10,21.10
2013,03,31,16,11,21.10
2013,03,31,16,12,21.20
2013,03,31,16,13,21.20
2013,03,31,16,14,21.20
2013,03,31,16,15,21.20
2013,03,31,16,16,21.20
2013,03,31,16,17,21.20
2013,03,31,16,18,21.10
2013,03,31,16,19,21.10
2013,03,31,16,20,21.10
2013,03,31,16,21,21.10
2013,03,31,16,22,21.10
2013,03,31,16,23,21.10
2013,03,31,16,24,21.10
2013,03,31,16,25,21.00
2013,03,31,16,26,21.00
2013,03,31,16,27,21.00
2013,03,31,16,28,21.00
2013,03,31,16,29,21.00
2013,03,31,16,30,21.00
2013,03,31,16,31,20.90
2013,03,31,16,32,20.90
2013,03,31,16,33,20.90
2013,03,31,16,34,20.90
2013,03,31,16,35,20.90
2013,03,31,16,36,20.80
2013,03,31,16,37,20.80
2013,03,31,16,38,20.80
2013,03,31,16,39,20.80
2013,03,31,16,40,20.80
2013,03,31,16,41,20.80
2013,03,31,16,42,20.80
2013,03,31,16,43,20.80
2013,03,31,16,44,20.80
2013,03,31,16,45,20.70
2013,03,31,16,46,20.70
2013,03,31,16,47,20.70
2013,03,31,16,48,20.60
2013,03,31,16,49,20.60
2013,03,31,16,50,20.60
2013,03,31,16,51,20.60
2013,03,31,16,52,20.60
2013,03,31,16,53,20.50
2013,03,31,16,54,20.50
2013,03,31,16,55,20.50
2013,03,31,16,56,20.40
2013,03,31,16,57,20.40
2013,03,31,16,58,20.50
2013,03,31,16,59,20.50
2013,03,31,17,00,20.50
2013,03,31,17,01,20.50
2013,03,31,17,02,20.50
2013,03,31,17,03,20.50
2013,03,31,17,04,20.50
2013,03,31,17,05,20.50
2013,03,31,17,06,20.40
2013,03,31,17,07,20.40
2013,03,31,17,08,20.40
2013,03,31,17,09,20.40
2013,03,31,17,10,20.40
2013,03,31,17,11,20.40
2013,03,31,17,12,20.40
2013,03,31,17,13,20.40
2013,03,31,17,14,20.40
2013,03,31,17,15,20.40
2013,03,31,17,16,20.40
2013,03,31,17,17,20.40
2013,03,31,17,18,20.40
2013,03,31,17,19,20.40
2013,03,31,17,20,20.50
2013,03,31,17,21,20.50
2013,03,31,17,22,20.50
2013,03,31,17,23,20.60
2013,03,31,17,24,20.60
2013,03,31,17,25,20.60
2013,03,31,17,26,20.60
2013,03,31,17,27,20.60
2013,03,31,17,28,20.60
2013,03,31,17,29,20.60
2013,03,31,17,30,20.60
2013,03,31,17,31,20.50
2013,03,31,17,32,20.50
2013,03,31,17,33,20.40
2013,03,31,17,34,20.40
2013,03,31,17,35,20.40
2013,03,31,17,36,20.40
2013,03,31,17,37,20.30
2013,03,31,17,38,20.30
2013,03,31,17,39,20.30
2013,03,31,17,40,20.30
2013,03,31,17,41,20.30
2013,03,31,17,42,20.20
2013,03,31,17,43,20.20